Regional Weather Roundup
Issued by NWS Albany, NY

Home | Current Version | Previous Version | Text Only | Print | Product List | Glossary On
Versions: 1 2 3 4 5 6 7 8 9 10 11 12 13 14 15 16 17 18 19 20 21 22 23 24 25 26 27 28 29 30 31 32 33 34 35 36 37 38 39 40 41 42 43 44 45 46 47 48 49 50
000
ASUS41 KALY 052110
RWRALY

NEW YORK STATE HOURLY WEATHER ROUNDUP
NATIONAL WEATHER SERVICE ALBANY NY
500 PM EDT TUE MAY 05 2015

NOTE: "FAIR" INDICATES FEW OR NO CLOUDS BELOW 12,000 FEET WITH NO
SIGNIFICANT WEATHER AND/OR NO OBSTRUCTIONS TO VISIBILITY.

NYZ032-033-038>043-046>054-057>066-NYZ062>081-052200-
EAST


CITY           SKY/WX    TMP DP  RH WIND       PRES   REMARKS
ALBANY         CLOUDY    75  46  35 NW5       30.16F
GLENS FALLS    CLOUDY    73  37  27 SE5       30.16F
POUGHKEEPSIE   MOSUNNY   83  50  31 VRB3      30.12F
NEWBURGH       MOSUNNY   81  46  30 W14G23    30.15F
MONTGOMERY     MOSUNNY   82  42  24 NW9       30.13F
WHITE PLAINS   MOSUNNY   79  52  38 VRB3      30.14F
ISLIP          PTSUNNY   75  52  44 S10       30.14F
NEW YORK CITY  PTSUNNY   80  54  40 S12       30.13F
CENTRAL PARK   PTSUNNY   81  54  39 VRB3      30.17F
$$

NYZ005>009-017-018-044>046-055-056-052200-
CENTRAL


CITY           SKY/WX    TMP DP  RH WIND       PRES   REMARKS
FULTON         CLOUDY    67  39  35 N6        30.24F
SYRACUSE       CLOUDY    70  44  39 N6        30.22F
ROME           CLOUDY    69  43  38 W6        30.23F
ELMIRA         CLOUDY    71  51  49 N10       30.21S
BINGHAMTON     CLOUDY    70  45  40 N10       30.22F
MONTICELLO     PTSUNNY   75  43  31 N7        30.21F
$$

NYZ026>034-041>043-052200-
NORTH


CITY           SKY/WX    TMP DP  RH WIND       PRES   REMARKS
WATERTOWN      CLOUDY    67  38  34 NW6       30.24F
FORT DRUM      NOT AVBL
MASSENA        PTSUNNY   66  32  28 W10G18    30.24F
SARANAC LAKE   CLOUDY    63  30  28 NW8       30.23S
PLATTSBURGH    CLOUDY    66  30  26 S6        30.20F
$$

NYZ001>004-010>016-019>021-052200-
WEST


CITY           SKY/WX    TMP DP  RH WIND       PRES   REMARKS
NIAGARA FALLS  CLOUDY    60  49  66 NW7       30.24F
BUFFALO        CLOUDY    65  50  58 N7        30.24F
DUNKIRK        LGT RAIN  56  49  77 CALM      30.27S
JAMESTOWN      CLOUDY    55  52  88 N8        30.26S
WELLSVILLE     LGT RAIN  67  45  45 N9        30.26S
ROCHESTER      CLOUDY    62  45  53 NE8       30.25F
PENN YAN       CLOUDY    68  48  48 NE3       30.23F
$$

             KEY
       WCI = WIND CHILL INDEX
       VSB = VISIBILITY
       HX  = HEAT INDEX
$$


USA.gov is the U.S. government's official web portal to all federal, state and local government web resources and services.